{"data":{"norad_id":57116,"epoch":"2026-09-20T11:01:28.134624Z","epoch_age_seconds":124434,"freshness":"FRESH","line1":"1 57116U 23090R   26263.45935341 -.00000315  00000+0 -19162-5 0  9991","line2":"2 57116  43.0037 261.2782 0001518 274.0394  86.0284 15.27573345180123","mean_motion":15.27573345,"eccentricity":0.0001518,"inclination_deg":43.0037,"raan_deg":261.2782,"arg_perigee_deg":274.0394,"mean_anomaly_deg":86.0284,"bstar":-1.9162e-6,"rev_number":18012,"period_min":94.267159394562,"perigee_km":482.02749250174,"apogee_km":484.1105546505,"semimajor_km":6861.2060235761,"source":"CELESTRAK","updated_at":"2026-09-21T09:00:33.561101Z"}}